Terug naar catalogus

STARLINK-37376

ActiefCommunicatieVLEO
NORAD 69378·PAYLOAD·🇺🇸 United States

Gelanceerd Jun 4, 2026 vanaf Cape Canaveral Space Force Station

Loading…

Volgende Passages (komende 24 uur)

TLE

VersSource: CelesTrak SupGP

Epoch: Sep 15, 2026, 04:34 UTC

1 69378C 26123AB  26258.19076389  .00033662  00000+0  99486-3 0  2589
2 69378  53.1584 166.8729 0001394  82.1036 156.0535 15.34363438    13

Volg STARLINK-37376 in realtime met AllMySat

Download on the App Store